TimeEST,TemperatureF,Dew PointF,Humidity,Sea Level PressureIn,VisibilityMPH,Wind Direction,Wind SpeedMPH,Gust SpeedMPH,PrecipitationIn,Events,Conditions,WindDirDegrees,DateUTC
12:13 AM,19.4,15.8,86,30.26,0.5,North,6.9,-,0.01,Fog-Snow,Snow,350,2014-03-02 05:13:00
12:53 AM,18.0,14.0,84,30.27,0.8,NNE,9.2,-,0.05,Snow,Light Snow,20,2014-03-02 05:53:00
1:24 AM,17.6,14.0,86,30.24,0.8,NNE,8.1,-,0.01,Snow,Light Snow,20,2014-03-02 06:24:00
1:38 AM,17.6,12.2,79,30.26,0.5,NNE,9.2,-,0.02,Fog-Snow,Snow,20,2014-03-02 06:38:00
1:53 AM,17.1,12.9,84,30.28,1.0,NNE,9.2,-,0.03,Snow,Light Snow,20,2014-03-02 06:53:00
2:08 AM,17.6,12.2,79,30.26,2.0,North,11.5,-,0.00,Snow,Light Snow,10,2014-03-02 07:08:00
2:16 AM,17.6,10.4,73,30.26,3.0,North,11.5,-,0.00,Snow,Light Snow,10,2014-03-02 07:16:00
2:34 AM,17.6,12.2,79,30.26,2.5,North,8.1,-,0.00,Snow,Light Snow,10,2014-03-02 07:34:00
2:46 AM,17.6,12.2,79,30.26,1.5,North,6.9,-,0.00,Snow,Light Snow,360,2014-03-02 07:46:00
2:53 AM,16.0,12.0,84,30.28,1.5,NNE,10.4,-,0.01,Snow,Light Snow,20,2014-03-02 07:53:00
3:26 AM,15.8,10.4,79,30.28,1.0,NNE,12.7,19.6,0.01,Snow,Light Snow,30,2014-03-02 08:26:00
3:31 AM,14.0,8.6,79,30.28,0.5,NNE,13.8,19.6,0.01,Fog-Snow,Snow,30,2014-03-02 08:31:00
3:53 AM,14.0,9.0,80,30.32,0.8,NNE,9.2,-,0.02,Snow,Light Snow,30,2014-03-02 08:53:00
4:07 AM,12.2,8.6,85,30.29,0.5,NE,11.5,-,0.01,Snow,Snow,50,2014-03-02 09:07:00
4:26 AM,12.2,8.6,85,30.29,0.8,NE,9.2,-,0.01,Snow,Light Snow,50,2014-03-02 09:26:00
4:53 AM,12.0,6.1,77,30.33,2.0,NNE,10.4,19.6,0.02,Snow,Light Snow,20,2014-03-02 09:53:00
5:51 AM,10.4,5.0,79,30.29,1.5,NNE,8.1,-,0.00,Snow,Light Snow,30,2014-03-02 10:51:00
5:53 AM,10.9,6.1,81,30.33,1.5,NE,9.2,-,0.00,Snow,Light Snow,50,2014-03-02 10:53:00
6:10 AM,10.4,6.8,85,30.30,0.8,NNE,8.1,-,0.01,Snow,Light Snow,20,2014-03-02 11:10:00
6:22 AM,10.4,6.8,85,30.30,0.5,NE,6.9,-,0.02,Fog-Snow,Snow,40,2014-03-02 11:22:00
6:51 AM,10.4,3.2,73,30.30,2.0,NNE,13.8,-,0.02,Snow,Light Snow,20,2014-03-02 11:51:00
6:53 AM,10.0,3.0,73,30.34,2.0,NNE,12.7,-,0.02,Snow,Light Snow,20,2014-03-02 11:53:00
7:09 AM,8.6,3.2,79,30.30,1.5,NE,9.2,17.3,0.00,Snow,Light Snow,40,2014-03-02 12:09:00
7:36 AM,10.4,3.2,73,30.32,3.0,NNE,10.4,-,0.01,Snow,Light Snow,30,2014-03-02 12:36:00
7:49 AM,10.4,1.4,67,30.33,3.0,NNE,9.2,-,0.01,Snow,Light Snow,20,2014-03-02 12:49:00
7:53 AM,10.0,1.0,67,30.36,3.0,NNE,11.5,-,0.01,Snow,Light Snow,20,2014-03-02 12:53:00
8:19 AM,10.4,1.4,67,30.32,6.0,NNE,8.1,-,0.00,,Haze,20,2014-03-02 13:19:00
8:53 AM,10.0,1.9,70,30.35,9.0,NE,8.1,-,0.00,,Overcast,40,2014-03-02 13:53:00
8:59 AM,10.4,1.4,67,30.32,10.0,NE,6.9,-,0.00,Snow,Light Snow,40,2014-03-02 13:59:00
9:53 AM,10.9,1.9,67,30.36,10.0,ENE,8.1,-,0.00,,Overcast,60,2014-03-02 14:53:00
10:20 AM,12.2,3.2,67,30.32,10.0,Variable,5.8,-,N/A,,Overcast,0,2014-03-02 15:20:00
10:53 AM,10.9,3.0,70,30.35,10.0,NNE,6.9,-,N/A,,Overcast,30,2014-03-02 15:53:00
11:19 AM,12.2,3.2,67,30.31,10.0,North,5.8,-,N/A,,Overcast,10,2014-03-02 16:19:00
11:53 AM,14.0,3.0,62,30.35,10.0,North,8.1,-,N/A,,Overcast,10,2014-03-02 16:53:00
12:53 PM,15.1,1.9,56,30.34,10.0,NNE,4.6,-,N/A,,Mostly Cloudy,20,2014-03-02 17:53:00
1:53 PM,17.1,1.0,50,30.32,10.0,North,9.2,-,N/A,,Overcast,10,2014-03-02 18:53:00
2:53 PM,18.0,1.9,50,30.30,10.0,North,4.6,-,N/A,,Overcast,350,2014-03-02 19:53:00
3:53 PM,17.1,1.0,50,30.30,10.0,North,3.5,-,N/A,,Overcast,10,2014-03-02 20:53:00
4:53 PM,17.1,1.0,50,30.30,10.0,NW,3.5,-,N/A,,Overcast,320,2014-03-02 21:53:00
5:53 PM,14.0,3.0,62,30.32,10.0,ESE,5.8,-,N/A,,Overcast,120,2014-03-02 22:53:00
6:53 PM,12.9,3.0,65,30.32,10.0,ESE,4.6,-,N/A,,Overcast,120,2014-03-02 23:53:00
7:53 PM,12.0,3.9,70,30.35,10.0,SSE,3.5,-,N/A,,Overcast,160,2014-03-03 00:53:00
8:53 PM,10.9,3.0,70,30.34,10.0,Calm,Calm,-,N/A,,Overcast,0,2014-03-03 01:53:00
9:53 PM,10.9,-2.0,56,30.36,10.0,NW,5.8,-,N/A,,Mostly Cloudy,320,2014-03-03 02:53:00
10:53 PM,10.0,-2.9,56,30.36,10.0,NW,6.9,-,N/A,,Scattered Clouds,320,2014-03-03 03:53:00
11:53 PM,9.0,-2.0,61,30.37,10.0,NW,4.6,-,N/A,,Scattered Clouds,310,2014-03-03 04:53:00